Hourly Weather Roundup
Issued by NWS Central Illinois

Home | Current Version | Previous Version | Text Only | Print | Product List | Glossary On
Versions: 1 2 3 4 5 6 7 8 9 10 11 12 13 14 15 16 17 18 19 20 21 22 23 24 25 26 27 28 29 30 31 32 33 34 35 36 37 38 39 40 41 42 43 44 45 46 47 48 49 50
000
NZUS43 KILX 281710
HWRILX

AREA WEATHER ROUNDUP
NATIONAL WEATHER SERVICE, LINCOLN IL
1200 PM CDT SAT MAY 28 2016


CITY           SKY/WX    TMP DP  RH WIND       PRES   REMARKS
BLOOMINGTON    CLOUDY    77  68  73 SW18      29.96S
CHAMPAIGN      CLOUDY    76  66  71 S22       29.98S
DANVILLE       CLOUDY    74  67  77 S17       29.98R
DECATUR        CLOUDY    76  65  68 S17G30    29.96S
EFFINGHAM      CLOUDY    75  69  79 S13       30.01S
FLORA          CLOUDY    78  68  72 S15       30.00R HX  80
GALESBURG      PTSUNNY   76  66  72 S13G18    29.88F
JACKSONVILLE   MOSUNNY   78  68  70 S10       29.92R HX  80
LACON          MOSUNNY   76  65  69 SW10      29.91S
LAWRENCEVILLE  SUNNY     84  64  50 S20       30.01F HX  85
LITCHFIELD     MOSUNNY   76  66  71 S18       29.96R
$$


CITY           SKY/WX    TMP DP  RH WIND       PRES   REMARKS
LINCOLN        MOSUNNY   78  67  70 S15G22    29.93F
MACOMB         PTSUNNY   77  67  72 S14G20    29.90S
MATTOON        CLOUDY    74  64  71 S15G23    29.99S
MT CARMEL AP   CLOUDY    82  63  52 S20G25    30.00F HX  83
OLNEY-NOBLE AP CLOUDY    77  64  65 S9        30.01R
PARIS          CLOUDY    77  68  75 S13       30.02S
PEORIA         PTSUNNY   78  64  61 S20       29.91S HX  80
PONTIAC        CLOUDY    77  67  71 S16G22    29.95S
RANTOUL        CLOUDY    76  68  76 S17       29.98S
ROBINSON       SUNNY     80  67  64 S16G22    30.01S HX  82
SPRINGFIELD    SUNNY     79  67  66 S15       29.93F HX  81
TAYLORVILLE    MOSUNNY   77  67  73 S17       29.95F
$$

...REGIONAL REPORTS...


CITY           SKY/WX    TMP DP  RH WIND       PRES   REMARKS
CHICAGO O`HARE CLOUDY    74  64  71 S15G29    29.92R
KANKAKEE       CLOUDY    73  66  78 S17       29.97S
MOLINE         MOSUNNY   80  65  59 S14G22    29.84S HX  82
MOUNT STERLING MOSUNNY   77  66  69 S15       29.90R
MOUNT VERNON   CLOUDY    77  66  69 SW14      30.01S
PITTSFIELD     PTSUNNY   77  67  72 S13G20    29.92R
QUINCY         MOSUNNY   77  65  66 S13       29.88S
ROCKFORD       CLOUDY    76  65  68 SW13G24   29.90S
$$


CITY           SKY/WX    TMP DP  RH WIND       PRES   REMARKS
BURLINGTON     CLOUDY    76  67  73 S14G20    29.86S
CEDAR RAPIDS   MOSUNNY   76  66  71 S15       29.81S
DES MOINES     CLOUDY    71  59  65 SW13      29.79R
KIRKSVILLE     MOSUNNY   74  66  76 S14       29.86R
OTTUMWA        CLOUDY    74  64  71 S13       29.81S
ST LOUIS       NOT AVBL
$$


CITY           SKY/WX    TMP DP  RH WIND       PRES   REMARKS
TERRE HAUTE    MOSUNNY   81  64  56 S15G24    30.01S HX  82
EVANSVILLE     CLOUDY    80  59  48 SW16G25   30.03S HX  81
INDIANAPOLIS   PTSUNNY   80  65  59 S14G23    30.02F HX  82
LAFAYETTE      CLOUDY    80  63  55 SW15G24   30.00S HX  81
MADISON        CLOUDY    76  65  68 SW10G21   29.83S
MILWAUKEE      CLOUDY    77  66  68 S21G28    29.88S
$$






USA.gov is the U.S. government's official web portal to all federal, state and local government web resources and services.